Volver al catálogo

MSG 2 DEB

COOLER COVER

LostGEO
NORAD 29106·DEBRIS·🇪🇺 EU

Lanzado Dec 21, 2005 desde Guiana Space Centre

Loading…

TLE

EnvejeciendoSource: Space-Track

Época: Jul 3, 2026, 16:25 UTC

1 29106U 05049E   26184.68455610 -.00000313  00000-0  00000+0 0  9999
2 29106  12.8742  28.6687 0007020 331.5065 254.4403  1.01171921 75099

Sigue MSG 2 DEB en tiempo real con AllMySat

Download on the App Store